TimePDT,TemperatureF,Dew PointF,Humidity,Sea Level PressureIn,VisibilityMPH,Wind Direction,Wind SpeedMPH,Gust SpeedMPH,PrecipitationIn,Events,Conditions,WindDirDegrees,DateUTC
12:53 AM,42.1,39.9,92,29.95,7.0,Calm,Calm,-,N/A,,Clear,0,2012-10-11 07:53:00
1:18 AM,42.8,41.0,93,29.96,1.8,Calm,Calm,-,N/A,,Clear,0,2012-10-11 08:18:00
1:29 AM,41.0,39.2,93,29.96,4.0,Calm,Calm,-,N/A,,Clear,0,2012-10-11 08:29:00
1:53 AM,42.1,39.9,92,29.96,5.0,Calm,Calm,-,N/A,,Clear,0,2012-10-11 08:53:00
2:29 AM,39.2,37.4,93,29.96,7.0,Calm,Calm,-,N/A,,Partly Cloudy,0,2012-10-11 09:29:00
2:43 AM,39.2,37.4,93,29.96,2.5,Calm,Calm,-,N/A,,Partly Cloudy,0,2012-10-11 09:43:00
2:51 AM,39.2,37.4,93,29.96,7.0,Calm,Calm,-,N/A,,Partly Cloudy,0,2012-10-11 09:51:00
2:53 AM,39.9,37.9,93,29.96,9.0,Calm,Calm,-,N/A,,Clear,0,2012-10-11 09:53:00
3:28 AM,37.4,35.6,93,29.95,10.0,Calm,Calm,-,N/A,,Mostly Cloudy,0,2012-10-11 10:28:00
3:43 AM,37.4,35.6,93,29.95,1.5,Calm,Calm,-,N/A,,Overcast,0,2012-10-11 10:43:00
3:53 AM,37.9,36.0,93,29.95,1.8,Calm,Calm,-,N/A,,Overcast,0,2012-10-11 10:53:00
4:25 AM,35.6,35.6,100,29.95,0.5,Calm,Calm,-,N/A,Fog,Fog,0,2012-10-11 11:25:00
4:35 AM,35.6,35.6,100,29.95,0.2,Calm,Calm,-,N/A,Fog,Fog,0,2012-10-11 11:35:00
4:42 AM,35.6,35.6,100,29.95,0.2,Calm,Calm,-,N/A,Fog,Fog,0,2012-10-11 11:42:00
4:49 AM,37.4,35.6,93,29.95,0.5,Calm,Calm,-,N/A,Fog,Fog,0,2012-10-11 11:49:00
4:53 AM,36.0,36.0,100,29.95,0.5,Calm,Calm,-,N/A,Fog,Fog,0,2012-10-11 11:53:00
5:00 AM,35.6,35.6,100,29.95,0.5,Calm,Calm,-,N/A,Fog,Fog,0,2012-10-11 12:00:00
5:53 AM,36.0,36.0,100,29.95,0.2,Calm,Calm,-,N/A,Fog,Fog,0,2012-10-11 12:53:00
5:57 AM,35.6,35.6,100,29.95,0.8,Calm,Calm,-,N/A,,Mostly Cloudy,0,2012-10-11 12:57:00
6:53 AM,35.1,35.1,100,29.96,0.8,Calm,Calm,-,N/A,,Scattered Clouds,0,2012-10-11 13:53:00
7:47 AM,37.4,35.6,93,29.96,0.8,Calm,Calm,-,N/A,,Overcast,0,2012-10-11 14:47:00
7:53 AM,37.0,37.0,100,29.97,0.2,Calm,Calm,-,N/A,Fog,Fog,0,2012-10-11 14:53:00
8:23 AM,39.2,39.2,100,29.97,0.5,Calm,Calm,-,N/A,Fog,Fog,0,2012-10-11 15:23:00
8:53 AM,42.1,42.1,100,29.97,0.5,Calm,Calm,-,N/A,Fog,Fog,0,2012-10-11 15:53:00
9:53 AM,46.0,45.0,96,29.98,0.8,WNW,3.5,-,N/A,,Overcast,290,2012-10-11 16:53:00
10:53 AM,46.0,45.0,96,29.97,1.0,Variable,3.5,-,N/A,,Overcast,0,2012-10-11 17:53:00
11:53 AM,48.9,46.0,90,29.95,1.0,South,3.5,-,N/A,,Overcast,170,2012-10-11 18:53:00
12:35 PM,51.8,46.4,82,29.93,2.0,Calm,Calm,-,N/A,,Haze,0,2012-10-11 19:35:00
12:53 PM,54.0,46.9,77,29.93,5.0,South,3.5,-,N/A,,Haze,180,2012-10-11 19:53:00
1:53 PM,59.0,46.9,64,29.89,10.0,Calm,Calm,-,N/A,,Clear,0,2012-10-11 20:53:00
2:53 PM,63.0,46.9,56,29.86,10.0,Calm,Calm,-,N/A,,Clear,0,2012-10-11 21:53:00
3:53 PM,66.0,46.0,48,29.84,10.0,SE,3.5,-,N/A,,Clear,130,2012-10-11 22:53:00
4:53 PM,68.0,46.0,45,29.82,10.0,Calm,Calm,-,N/A,,Widespread Dust,0,2012-10-11 23:53:00
6:53 PM,55.0,44.1,67,29.80,7.0,Calm,Calm,-,N/A,,Clear,0,2012-10-12 01:53:00
7:53 PM,52.0,45.0,77,29.81,10.0,Calm,Calm,-,N/A,,Clear,0,2012-10-12 02:53:00
8:53 PM,48.9,44.1,83,29.82,10.0,NW,3.5,-,N/A,,Clear,320,2012-10-12 03:53:00
9:53 PM,46.0,42.1,86,29.83,10.0,Calm,Calm,-,N/A,,Clear,0,2012-10-12 04:53:00
10:53 PM,43.0,41.0,93,29.83,9.0,Calm,Calm,-,N/A,,Clear,0,2012-10-12 05:53:00
11:53 PM,41.0,39.0,93,29.85,7.0,Calm,Calm,-,N/A,,Clear,0,2012-10-12 06:53:00